When you browse on this site, cookies collect data to enhance your experience and personalize the content and advertising you see.
Visit our Privacy Policy to learn more. By continuing to use the site, you agree to this use of cookies and data.
  • In Norway
  • List of Countries
  • For 7 days
  • Water Temperature
  • Satellite Maps
  • Weather Map
  • Weather Widgets
  • user-avatar
    Login

    Hourly Weather Sydney

    Today, 21 June, Friday

    Time Temperature Precipitation Wind Pressure Humidity
    00:00 +10°C° 0.1 mm 3 mps 765 mmHg 73%
    01:00 +10°C° 0.1 mm 4 mps 765 mmHg 72%
    02:00 +8°C° 0 mm 4 mps 765 mmHg 70%
    03:00 +8°C° 0 mm 5 mps 765 mmHg 69%
    04:00 +7°C° 0 mm 5 mps 765 mmHg 67%
    05:00 +7°C° 0 mm 5 mps 766 mmHg 67%
    06:00 +6°C° 0 mm 5 mps 766 mmHg 67%
    07:00 +6°C° 0 mm 5 mps 766 mmHg 68%
    08:00 +7°C° 0 mm 5 mps 766 mmHg 61%
    09:00 +8°C° 0 mm 5 mps 766 mmHg 54%
    10:00 +10°C° 0 mm 5 mps 766 mmHg 47%
    11:00 +12°C° 0 mm 5 mps 766 mmHg 44%
    12:00 +13°C° 0 mm 5 mps 766 mmHg 40%
    13:00 +15°C° 0 mm 5 mps 765 mmHg 36%
    14:00 +14°C° 0 mm 6 mps 765 mmHg 38%
    15:00 +14°C° 0 mm 6 mps 765 mmHg 40%
    16:00 +13°C° 0 mm 6 mps 765 mmHg 42%
    17:00 +11°C° 0.1 mm 6 mps 766 mmHg 46%
    18:00 +10°C° 0.1 mm 6 mps 767 mmHg 51%
    19:00 +9°C° 0.1 mm 7 mps 767 mmHg 55%
    20:00 +8°C° 0.1 mm 7 mps 767 mmHg 57%
    21:00 +8°C° 0.1 mm 7 mps 768 mmHg 58%
    22:00 +6°C° 0.1 mm 7 mps 768 mmHg 60%
    23:00 +6°C° 0.1 mm 7 mps 768 mmHg 61%

    Tomorrow, 22 June, Saturday

    Time Temperature Precipitation Wind Pressure Humidity
    00:00 +6°C° 0.1 mm 7 mps 768 mmHg 62%
    01:00 +5°C° 0.1 mm 7 mps 768 mmHg 63%
    02:00 +5°C° 0.2 mm 7 mps 768 mmHg 63%
    03:00 +5°C° 0.2 mm 7 mps 768 mmHg 64%
    04:00 +5°C° 0.2 mm 7 mps 768 mmHg 64%
    05:00 +5°C° 0.3 mm 7 mps 768 mmHg 65%
    06:00 +5°C° 0.3 mm 7 mps 768 mmHg 66%
    07:00 +4°C° 0.3 mm 7 mps 768 mmHg 67%
    08:00 +6°C° 0.3 mm 7 mps 768 mmHg 64%
    09:00 +9°C° 0.3 mm 7 mps 769 mmHg 60%
    10:00 +11°C° 0.3 mm 7 mps 769 mmHg 56%
    11:00 +12°C° 0.3 mm 7 mps 768 mmHg 54%
    12:00 +12°C° 0.3 mm 7 mps 768 mmHg 53%
    13:00 +13°C° 0.3 mm 8 mps 767 mmHg 51%
    14:00 +13°C° 0.3 mm 8 mps 767 mmHg 54%
    15:00 +13°C° 0.3 mm 8 mps 767 mmHg 57%
    16:00 +12°C° 0.3 mm 8 mps 767 mmHg 60%
    17:00 +11°C° 0.2 mm 7 mps 768 mmHg 64%
    18:00 +10°C° 0.2 mm 6 mps 768 mmHg 68%
    19:00 +9°C° 0.2 mm 6 mps 769 mmHg 72%
    20:00 +9°C° 0.4 mm 6 mps 769 mmHg 74%
    21:00 +8°C° 0.4 mm 5 mps 769 mmHg 76%
    22:00 +8°C° 0.4 mm 5 mps 769 mmHg 77%
    23:00 +7°C° 0.5 mm 6 mps 769 mmHg 78%

    Day after tomorrow, 23 June, Sunday

    Time Temperature Precipitation Wind Pressure Humidity
    00:00 +7°C° 0.5 mm 6 mps 769 mmHg 78%
    01:00 +7°C° 0.5 mm 6 mps 769 mmHg 78%
    02:00 +7°C° 0.5 mm 6 mps 769 mmHg 78%
    03:00 +7°C° 0.5 mm 6 mps 769 mmHg 77%
    04:00 +7°C° 0.5 mm 6 mps 769 mmHg 77%
    05:00 +7°C° 0.5 mm 6 mps 769 mmHg 77%
    06:00 +5°C° 0.5 mm 6 mps 769 mmHg 77%
    07:00 +5°C° 0.5 mm 6 mps 769 mmHg 76%
    08:00 +8°C° 0.4 mm 7 mps 769 mmHg 71%
    09:00 +9°C° 0.4 mm 7 mps 770 mmHg 66%
    10:00 +11°C° 0.4 mm 7 mps 770 mmHg 61%
    11:00 +12°C° 0.6 mm 7 mps 769 mmHg 61%
    12:00 +12°C° 0.6 mm 7 mps 769 mmHg 62%
    13:00 +14°C° 0.6 mm 7 mps 768 mmHg 62%
    14:00 +14°C° 0.8 mm 6 mps 769 mmHg 66%
    15:00 +13°C° 0.8 mm 5 mps 769 mmHg 69%
    16:00 +13°C° 0.8 mm 5 mps 769 mmHg 72%
    17:00 +12°C° 0.5 mm 4 mps 770 mmHg 77%
    18:00 +11°C° 0.5 mm 4 mps 770 mmHg 82%
    19:00 +10°C° 0.5 mm 4 mps 771 mmHg 86%
    20:00 +10°C° 0.6 mm 4 mps 771 mmHg 87%
    21:00 +9°C° 0.6 mm 5 mps 771 mmHg 88%
    22:00 +8°C° 0.6 mm 5 mps 771 mmHg 90%
    23:00 +8°C° 1.1 mm 5 mps 771 mmHg 90%

    24 June, Monday

    Time Temperature Precipitation Wind Pressure Humidity
    00:00 +9°C° 1.1 mm 5 mps 771 mmHg 90%
    01:00 +9°C° 1.1 mm 5 mps 771 mmHg 90%
    02:00 +8°C° 0.5 mm 5 mps 771 mmHg 91%
    03:00 +8°C° 0.5 mm 5 mps 771 mmHg 91%
    04:00 +8°C° 0.5 mm 5 mps 771 mmHg 92%
    05:00 +8°C° 0.3 mm 5 mps 772 mmHg 92%
    06:00 +8°C° 0.3 mm 5 mps 773 mmHg 91%
    07:00 +8°C° 0.3 mm 5 mps 773 mmHg 91%
    08:00 +10°C° 0.1 mm 5 mps 773 mmHg 87%
    09:00 +12°C° 0.1 mm 5 mps 774 mmHg 82%
    10:00 +13°C° 0.1 mm 6 mps 774 mmHg 78%
    11:00 +14°C° 0.4 mm 6 mps 774 mmHg 74%
    12:00 +15°C° 0.4 mm 6 mps 773 mmHg 69%
    13:00 +16°C° 0.4 mm 6 mps 773 mmHg 65%
    14:00 +15°C° 0.2 mm 6 mps 773 mmHg 67%
    15:00 +15°C° 0.2 mm 6 mps 773 mmHg 69%
    16:00 +14°C° 0.2 mm 5 mps 773 mmHg 71%
    17:00 +13°C° 0 mm 5 mps 773 mmHg 74%
    18:00 +12°C° 0 mm 5 mps 774 mmHg 78%
    19:00 +11°C° 0 mm 4 mps 774 mmHg 82%
    20:00 +11°C° 0.1 mm 4 mps 774 mmHg 84%
    21:00 +11°C° 0.1 mm 4 mps 774 mmHg 86%
    22:00 +11°C° 0.1 mm 4 mps 774 mmHg 88%
    23:00 +11°C° 0.1 mm 4 mps 774 mmHg 87%

    25 June, Tuesday

    Time Temperature Precipitation Wind Pressure Humidity
    00:00 +11°C° 0.1 mm 4 mps 774 mmHg 86%
    01:00 +12°C° 0.1 mm 4 mps 774 mmHg 86%
    02:00 +11°C° 0.1 mm 4 mps 774 mmHg 85%
    03:00 +11°C° 0.1 mm 4 mps 774 mmHg 85%
    04:00 +11°C° 0.1 mm 4 mps 774 mmHg 85%
    05:00 +11°C° 0 mm 4 mps 774 mmHg 87%
    06:00 +10°C° 0 mm 4 mps 775 mmHg 88%
    07:00 +10°C° 0 mm 4 mps 775 mmHg 90%
    08:00 +11°C° 0 mm 4 mps 775 mmHg 84%
    09:00 +13°C° 0 mm 4 mps 775 mmHg 79%
    10:00 +14°C° 0 mm 4 mps 775 mmHg 74%
    11:00 +15°C° 0 mm 5 mps 775 mmHg 69%
    12:00 +16°C° 0 mm 5 mps 774 mmHg 65%
    13:00 +16°C° 0 mm 5 mps 774 mmHg 61%
    14:00 +16°C° 0 mm 5 mps 774 mmHg 61%
    15:00 +16°C° 0 mm 5 mps 774 mmHg 61%
    16:00 +15°C° 0 mm 5 mps 774 mmHg 62%
    17:00 +14°C° 0 mm 5 mps 774 mmHg 66%
    18:00 +13°C° 0 mm 5 mps 775 mmHg 71%
    19:00 +12°C° 0 mm 5 mps 775 mmHg 76%
    20:00 +12°C° 0.1 mm 5 mps 775 mmHg 75%
    21:00 +12°C° 0.1 mm 5 mps 775 mmHg 75%
    22:00 +12°C° 0.1 mm 5 mps 775 mmHg 75%
    23:00 +11°C° 0 mm 4 mps 775 mmHg 76%

    26 June, Wednesday

    Time Temperature Precipitation Wind Pressure Humidity
    00:00 +11°C° 0 mm 4 mps 775 mmHg 77%
    01:00 +10°C° 0 mm 4 mps 775 mmHg 78%
    02:00 +10°C° 0 mm 4 mps 775 mmHg 78%
    03:00 +10°C° 0 mm 4 mps 775 mmHg 77%
    04:00 +10°C° 0 mm 4 mps 775 mmHg 76%
    05:00 +10°C° 0 mm 4 mps 775 mmHg 77%
    06:00 +10°C° 0 mm 4 mps 776 mmHg 78%
    07:00 +10°C° 0 mm 4 mps 776 mmHg 79%
    08:00 +10°C° 0 mm 5 mps 776 mmHg 75%
    09:00 +13°C° 0 mm 5 mps 776 mmHg 70%
    10:00 +14°C° 0 mm 5 mps 776 mmHg 65%
    11:00 +14°C° 0.1 mm 5 mps 776 mmHg 66%
    12:00 +14°C° 0.1 mm 5 mps 775 mmHg 67%
    13:00 +15°C° 0.1 mm 5 mps 775 mmHg 68%
    14:00 +15°C° 0.1 mm 5 mps 775 mmHg 67%
    15:00 +15°C° 0.1 mm 5 mps 775 mmHg 67%
    16:00 +15°C° 0.1 mm 5 mps 775 mmHg 67%
    17:00 +14°C° 0.1 mm 5 mps 775 mmHg 69%
    18:00 +14°C° 0.1 mm 5 mps 776 mmHg 71%
    19:00 +13°C° 0.1 mm 4 mps 776 mmHg 74%
    20:00 +13°C° 0 mm 4 mps 776 mmHg 74%
    21:00 +13°C° 0 mm 4 mps 776 mmHg 75%
    22:00 +13°C° 0 mm 4 mps 776 mmHg 76%
    23:00 +12°C° 0 mm 3 mps 776 mmHg 76%
    Show more